Hourly Data Report for March 27, 2020

TORONTO CITY
ONTARIO
Current Station Operator: ECCC - MSC

43°40'00.000" N
79°24'00.000" W
112.50 m
6158355
71508
XTO

Download Data

Hourly Data (March 2020)
Hourly Data Report for March 27, 2020
TIME
LST
Temp Definition
°C
Dew Point Definition
°C
Rel Hum Definition
%
Precip. Amount Definition
mm

Wind Dir Definition
10's deg

Wind Spd Definition
km/h
Visibility Definition
km
Stn Press Definition
kPa
Hmdx Definition


Wind Chill Definition


Weather Definition


00:00 4.6 0.4 74 0.0       99.83     LegendNANA
01:00 3.8 -0.4 74 0.0       99.88     LegendNANA
02:00 3.3 -0.6 75 0.0       99.90     LegendNANA
03:00 3.2 -0.6 76 0.0       99.93     LegendNANA
04:00 3.1 -0.8 75 0.0       99.97     LegendNANA
05:00 3.0 -0.7 77 0.0       100.01     LegendNANA
06:00 2.8 -0.9 77 0.0       100.05     LegendNANA
07:00 2.9 -0.9 76 0.0       100.20     LegendNANA
08:00 3.4 -1.0 73 0.0       100.28     LegendNANA
09:00 3.6 -1.0 72 0.0       100.33     LegendNANA
10:00 5.0 -1.1 65 0.0       100.30     LegendNANA
11:00 7.0 0.4 63 0.0       100.31     LegendNANA
12:00 6.7 -0.5 60 0.0       100.30     LegendNANA
13:00 6.6 -0.4 61 0.0       100.35     LegendNANA
14:00 6.7 -0.7 59 0.2       100.28     LegendNANA
15:00 7.0 0.0 61 0.5       100.23     LegendNANA
16:00 7.6 0.4 60 0.2       100.22     LegendNANA
17:00 7.1 -0.7 58 0.0       100.31     LegendNANA
18:00 7.2 -0.6 58 0.0       100.32     LegendNANA
19:00 6.6 -0.7 60 0.0       100.35     LegendNANA
20:00 6.3 -1.5 57 0.0       100.37     LegendNANA
21:00 5.6 -0.9 63 0.0       100.41     LegendNANA
22:00 5.0 -1.2 64 0.0       100.45     LegendNANA
23:00 4.6 -1.2 66 0.0       100.41     LegendNANA

Notes on Data Quality.

Legend

  • E = Estimated
  • M = Missing
  • NA = Not Available*
  • [empty] = Indicates an unobserved value
Date modified: